Notices

What's New in latest Release from April 7th, 2021:

- Updated Glossary, including Speed of Maximum Gust, and Total Hourly Precipitation

- Updated national and regional climate services offices contacts and prices information

- Addition of station inventory lists for 1981-2010, 1971-2000, and 1961-1990 Normals.

If you haven't already, please take our survey and provide feedback about our website: https://eccc.sondage-survey.ca/f/LanguageSelection.aspx?s=442ca660-fcf1-47c0-95a9-59707d6fd709

Hourly Data Report for August 26, 2015

IQALUIT CLIMATE
NUNAVUT

63°44'50.000" N
68°32'40.000" W
33.50 m
2402592
71321
XFB

Download Data

Hourly Data (August 2015)
Hourly Data Report for August 26, 2015
TIME
LST
Temp Definition
°C
Dew Point Definition
°C
Rel Hum Definition
%
Precip. Amount Definition
mm

Wind Dir Definition
10's deg

Wind Spd Definition
km/h
Visibility Definition
km
Stn Press Definition
kPa
Hmdx Definition


Wind Chill Definition


Weather Definition


00:00 2.1 1.5 96 1.1 15 19   101.86     LegendNANA
01:00 1.7 1.1 96 0.2 16 13   101.91     LegendNANA
02:00 1.8 1.1 95 0.0 15 20   101.86     LegendNANA
03:00 1.5 0.9 96 1.0 16 15   101.84     LegendNANA
04:00 1.5 0.7 95 0.9 16 19   101.81     LegendNANA
05:00 1.1 0.6 97 1.9 16 19   101.79     LegendNANA
06:00 1.2 0.5 95 1.9 16 18   101.75     LegendNANA
07:00 1.5 0.9 96 1.1 16 17   101.70     LegendNANA
08:00 1.8 0.4 90 0.0 16 20   101.64     LegendNANA
09:00 1.6 0.2 91 0.0 16 23   101.61     LegendNANA
10:00 1.5 0.6 94 1.0 15 20   101.55     LegendNANA
11:00 1.7 0.7 93 1.3 15 22   101.50     LegendNANA
12:00 1.7 0.6 93 0.9 15 32   101.39     LegendNANA
13:00 1.9 1.0 94 2.8 15 32   101.35     LegendNANA
14:00 1.9 1.0 93 1.2 15 33   101.26     LegendNANA
15:00 2.0 1.2 94 0.8 15 32   101.18     LegendNANA
16:00 3.0 1.7 91 0.2 15 34   101.08     LegendNANA
17:00 2.7 1.5 92 1.3 15 30   101.00     LegendNANA
18:00 2.3 1.1 92 0.0 15 24   100.91     LegendNANA
19:00 3.0 1.9 93 0.8 15 26   100.86     LegendNANA
20:00 3.1 2.1 93 4.7 15 25   100.77     LegendNANA
21:00 3.1 2.1 93 2.5 15 30   100.67     LegendNANA
22:00 3.1 2.2 94 3.6 14 25   100.50     LegendNANA
23:00 2.8 2.0 95 0.2 15 23   100.40     LegendNANA

Notes on Data Quality.

Legend

  • E = Estimated
  • M = Missing
  • NA = Not Available*
  • [empty] = Indicates an unobserved value
Date modified: